Location: Newark
(27.9675°N, 86.8869°E)
Time: 10:42:24
(UTC+00:00)

deb Explorer IX - Pass Details

Date: 28 October 2019
Orbit: 546 x 1105 km, 38.8° (Epoch: 17 November)

Event Time Altitude Azimuth Distance (km) Brightness Sun altitude
Rises 06:57:49 0° 299° (WNW) 2,920 ? 46.4°
Reaches altitude 10° 07:00:22 10° 313° (NW) 2,090 ? 46.1°
Maximum altitude 07:04:26 25° 10° (N) 1,434 ? 45.8°
Drops below altitude 10° 07:09:02 10° 65° (ENE) 2,391 ? 45.4°
Sets 07:12:10 0° 78° (ENE) 3,438 ? 45.1°
